Location: Munkebjergskolens Observatorium
(55.3864°N, 10.3987°E)
Time: 22:38:18
(UTC+01:00)

Envisat - Pass Details

Date: 05 December 2022
Orbit: 763 x 765 km, 98.2° (Epoch: 01 February)

Event Time Altitude Azimuth Distance (km) Brightness Sun altitude
Rises 05:42:07 0° 12° (NNE) 3,249 6.3 -22.0°
Reaches altitude 10° 05:44:32 10° 6° (N) 2,318 5.5 -21.6°
Enters shadow 05:48:47 40° 313° (NW) 1,117 3.4 -21.0°
